Wetterdaten: Freitag, 20.12.2013
Datum Zeit Temperatur Luftfeuchte Luftdruck Regen Wind Richtung Richtung Taupunkt Windchill Windben
20.12.2013 00:00 2,7 C 69 % 1016,1 hPa 0,0 l/m 3,5 km/h (1 Bft) SO 135 -2,4 C 2,9 C 3,2 km/h (1 Bft)
20.12.2013 00:05 3,2 C 67 % 1016,1 hPa 0,0 l/m 4,0 km/h (1 Bft) O-SO 112 -2,3 C 2,7 C 6,8 km/h (2 Bft)
20.12.2013 00:10 4,0 C 61 % 1016,1 hPa 0,0 l/m 5,8 km/h (2 Bft) O 90 -2,8 C 2,6 C 7,1 km/h (2 Bft)
20.12.2013 00:15 3,9 C 61 % 1016,1 hPa 0,0 l/m 5,0 km/h (1 Bft) O-SO 112 -2,9 C 3,2 C 5,8 km/h (2 Bft)
20.12.2013 00:20 4,0 C 60 % 1016,0 hPa 0,0 l/m 4,7 km/h (1 Bft) O 90 -3,0 C 3,3 C 7,1 km/h (2 Bft)
20.12.2013 00:25 4,0 C 59 % 1016,0 hPa 0,0 l/m 6,0 km/h (2 Bft) O 90 -3,3 C 2,9 C 8,4 km/h (2 Bft)
20.12.2013 00:30 3,8 C 61 % 1016,0 hPa 0,0 l/m 6,1 km/h (2 Bft) NO 45 -3,0 C 2,8 C 6,6 km/h (2 Bft)
20.12.2013 00:35 3,5 C 62 % 1016,0 hPa 0,0 l/m 6,0 km/h (2 Bft) NO 45 -3,1 C 2,8 C 7,6 km/h (2 Bft)
20.12.2013 00:40 3,4 C 63 % 1015,9 hPa 0,0 l/m 6,0 km/h (2 Bft) O 90 -3,0 C 2,7 C 6,4 km/h (2 Bft)
20.12.2013 00:45 3,4 C 63 % 1015,9 hPa 0,0 l/m 5,8 km/h (2 Bft) O-NO 67 -3,0 C 2,6 C 6,1 km/h (2 Bft)
20.12.2013 00:50 3,1 C 64 % 1015,9 hPa 0,0 l/m 4,0 km/h (1 Bft) NO 45 -3,0 C 3,1 C 0,0 km/h (0 Bft)
20.12.2013 00:55 2,5 C 66 % 1015,9 hPa 0,0 l/m 1,9 km/h (1 Bft) NO 45 -3,2 C 3,3 C 0,0 km/h (0 Bft)
20.12.2013 01:00 2,2 C 68 % 1015,6 hPa 0,0 l/m 0,0 km/h (0 Bft) O 90 -3,1 C 2,7 C 0,0 km/h (0 Bft)
20.12.2013 01:05 2,3 C 69 % 1015,6 hPa 0,0 l/m 0,0 km/h (0 Bft) O 90 -2,8 C 2,5 C 0,0 km/h (0 Bft)
20.12.2013 01:10 2,5 C 69 % 1015,6 hPa 0,0 l/m 0,5 km/h (0 Bft) O-NO 67 -2,6 C 2,2 C 3,4 km/h (1 Bft)
20.12.2013 01:15 2,6 C 68 % 1015,6 hPa 0,0 l/m 1,1 km/h (1 Bft) O-NO 67 -2,7 C 2,1 C 0,0 km/h (0 Bft)
20.12.2013 01:20 2,0 C 69 % 1015,6 hPa 0,0 l/m 0,8 km/h (0 Bft) NO 45 -3,1 C 1,9 C 0,0 km/h (0 Bft)
20.12.2013 01:25 1,8 C 71 % 1015,6 hPa 0,0 l/m 0,2 km/h (0 Bft) O 90 -2,9 C 1,8 C 2,4 km/h (1 Bft)
20.12.2013 01:30 1,5 C 72 % 1015,6 hPa 0,0 l/m 0,3 km/h (0 Bft) O 90 -3,0 C 1,8 C 0,0 km/h (0 Bft)
20.12.2013 01:35 1,6 C 72 % 1015,6 hPa 0,0 l/m 0,3 km/h (0 Bft) O 90 -2,9 C 1,7 C 2,4 km/h (1 Bft)
20.12.2013 01:38 1,5 C 73 % 1015,8 hPa 0,0 l/m 0,2 km/h (0 Bft) O 90 -2,8 C 1,6 C 0,0 km/h (0 Bft)
20.12.2013 01:40 1,5 C 73 % 1015,8 hPa 0,0 l/m 0,2 km/h (0 Bft) O 90 -2,8 C 1,6 C 0,0 km/h (0 Bft)
20.12.2013 01:45 1,5 C 73 % 1015,8 hPa 0,0 l/m 0,2 km/h (0 Bft) O 90 -2,8 C 1,5 C 0,0 km/h (0 Bft)
20.12.2013 01:50 1,7 C 74 % 1015,8 hPa 0,0 l/m 0,5 km/h (0 Bft) O 90 -2,4 C 1,3 C 3,1 km/h (1 Bft)
20.12.2013 01:55 1,5 C 74 % 1015,8 hPa 0,0 l/m 0,8 km/h (0 Bft) NO 45 -2,6 C 1,2 C 0,0 km/h (0 Bft)
20.12.2013 02:00 1,2 C 74 % 1015,9 hPa 0,0 l/m 0,6 km/h (0 Bft) O 90 -2,9 C 1,0 C 1,6 km/h (1 Bft)
20.12.2013 02:05 1,4 C 74 % 1015,9 hPa 0,0 l/m 0,3 km/h (0 Bft) O 90 -2,7 C 0,8 C 0,0 km/h (0 Bft)
20.12.2013 02:10 1,3 C 75 % 1015,9 hPa 0,0 l/m 1,1 km/h (1 Bft) O 90 -2,6 C 0,5 C 5,0 km/h (1 Bft)
20.12.2013 02:15 1,6 C 74 % 1015,9 hPa 0,0 l/m 2,3 km/h (1 Bft) O 90 -2,5 C 0,6 C 5,8 km/h (2 Bft)
20.12.2013 02:20 0,7 C 74 % 1015,9 hPa 0,0 l/m 1,9 km/h (1 Bft) NO 45 -3,4 C 0,5 C 0,0 km/h (0 Bft)
20.12.2013 02:25 0,4 C 75 % 1015,9 hPa 0,0 l/m 0,5 km/h (0 Bft) NO 45 -3,5 C 0,4 C 0,0 km/h (0 Bft)
20.12.2013 02:30 0,3 C 77 % 1015,9 hPa 0,0 l/m 0,5 km/h (0 Bft) O-SO 112 -3,2 C 0,2 C 4,8 km/h (1 Bft)
20.12.2013 02:35 1,1 C 77 % 1015,9 hPa 0,0 l/m 2,1 km/h (1 Bft) O-NO 67 -2,5 C 0,4 C 4,8 km/h (1 Bft)
20.12.2013 02:40 1,5 C 76 % 1016,0 hPa 0,0 l/m 3,9 km/h (1 Bft) O-NO 67 -2,3 C 0,0 C 2,9 km/h (1 Bft)
20.12.2013 02:45 1,5 C 76 % 1016,0 hPa 0,0 l/m 3,9 km/h (1 Bft) O 90 -2,3 C 0,2 C 2,1 km/h (1 Bft)
20.12.2013 02:50 0,9 C 76 % 1016,0 hPa 0,0 l/m 1,6 km/h (1 Bft) O 90 -2,8 C 1,1 C 0,0 km/h (0 Bft)
20.12.2013 02:55 1,1 C 76 % 1016,0 hPa 0,0 l/m 0,3 km/h (0 Bft) O-SO 112 -2,6 C 0,9 C 0,0 km/h (0 Bft)
20.12.2013 03:00 0,4 C 77 % 1016,1 hPa 0,0 l/m 0,2 km/h (0 Bft) O-SO 112 -3,1 C 0,6 C 0,0 km/h (0 Bft)
20.12.2013 03:05 0,5 C 77 % 1016,1 hPa 0,0 l/m 0,2 km/h (0 Bft) O-SO 112 -3,1 C 0,5 C 0,0 km/h (0 Bft)
20.12.2013 03:10 0,4 C 77 % 1016,1 hPa 0,0 l/m 0,2 km/h (0 Bft) O-NO 67 -3,1 C 0,4 C 0,0 km/h (0 Bft)
20.12.2013 03:15 0,2 C 77 % 1016,1 hPa 0,0 l/m 0,2 km/h (0 Bft) O 90 -3,3 C 0,3 C 0,0 km/h (0 Bft)
20.12.2013 03:20 0,4 C 79 % 1015,8 hPa 0,0 l/m 0,5 km/h (0 Bft) NO 45 -2,8 C 0,2 C 0,0 km/h (0 Bft)
20.12.2013 03:25 0,4 C 78 % 1015,8 hPa 0,0 l/m 0,3 km/h (0 Bft) NO 45 -3,0 C 0,2 C 2,3 km/h (1 Bft)
20.12.2013 03:30 0,5 C 78 % 1015,8 hPa 0,0 l/m 0,5 km/h (0 Bft) NO 45 -2,9 C 0,2 C 0,0 km/h (0 Bft)
20.12.2013 03:35 0,3 C 78 % 1015,8 hPa 0,0 l/m 0,3 km/h (0 Bft) NO 45 -3,1 C 0,3 C 0,0 km/h (0 Bft)
20.12.2013 03:40 0,2 C 78 % 1015,9 hPa 0,0 l/m 0,3 km/h (0 Bft) O-SO 112 -3,2 C 0,2 C 1,8 km/h (1 Bft)
20.12.2013 03:45 0,6 C 79 % 1015,9 hPa 0,0 l/m 1,0 km/h (0 Bft) O-SO 112 -2,6 C 0,2 C 4,3 km/h (1 Bft)
20.12.2013 03:50 1,1 C 79 % 1015,9 hPa 0,0 l/m 2,1 km/h (1 Bft) S 180 -2,1 C 0,5 C 3,9 km/h (1 Bft)
20.12.2013 03:55 0,1 C 78 % 1015,9 hPa 0,0 l/m 2,1 km/h (1 Bft) S-SW 202 -3,3 C 0,3 C 0,0 km/h (0 Bft)
20.12.2013 04:00 -0,1 C 78 % 1015,9 hPa 0,0 l/m 0,8 km/h (0 Bft) S-SO 157 -3,5 C 0,0 C 0,0 km/h (0 Bft)
20.12.2013 04:05 0,0 C 79 % 1015,9 hPa 0,0 l/m 0,5 km/h (0 Bft) S 180 -3,2 C -0,1 C 0,0 km/h (0 Bft)
20.12.2013 04:10 0,0 C 79 % 1015,9 hPa 0,0 l/m 0,5 km/h (0 Bft) W-SW 247 -3,2 C 0,0 C 0,0 km/h (0 Bft)
20.12.2013 04:15 0,0 C 80 % 1015,9 hPa 0,0 l/m 0,5 km/h (0 Bft) W 270 -3,0 C 0,0 C 2,3 km/h (1 Bft)
20.12.2013 04:20 0,1 C 81 % 1016,2 hPa 0,0 l/m 1,3 km/h (1 Bft) NW 315 -2,8 C 0,0 C 2,9 km/h (1 Bft)
20.12.2013 04:25 0,3 C 82 % 1016,2 hPa 0,0 l/m 2,1 km/h (1 Bft) NW 315 -2,4 C 0,0 C 2,1 km/h (1 Bft)
20.12.2013 04:30 0,2 C 81 % 1016,2 hPa 0,0 l/m 1,3 km/h (1 Bft) W-NW 292 -2,7 C 0,3 C 0,0 km/h (0 Bft)
20.12.2013 04:35 0,2 C 81 % 1016,2 hPa 0,0 l/m 1,0 km/h (0 Bft) W-SW 247 -2,7 C 0,4 C 2,6 km/h (1 Bft)
20.12.2013 04:40 0,0 C 81 % 1016,2 hPa 0,0 l/m 0,6 km/h (0 Bft) W 270 -2,9 C 0,2 C 1,9 km/h (1 Bft)
20.12.2013 04:45 0,1 C 81 % 1016,2 hPa 0,0 l/m 0,3 km/h (0 Bft) W 270 -2,8 C 0,2 C 0,0 km/h (0 Bft)
20.12.2013 04:50 0,0 C 81 % 1016,2 hPa 0,0 l/m 0,2 km/h (0 Bft) W 270 -2,9 C 0,2 C 0,0 km/h (0 Bft)
20.12.2013 04:55 -0,2 C 81 % 1016,2 hPa 0,0 l/m 0,0 km/h (0 Bft) W 270 -3,1 C 0,1 C 0,0 km/h (0 Bft)
20.12.2013 05:00 0,1 C 82 % 1016,7 hPa 0,0 l/m 0,0 km/h (0 Bft) W-SW 247 -2,6 C 0,1 C 0,0 km/h (0 Bft)
20.12.2013 05:05 0,0 C 81 % 1016,7 hPa 0,0 l/m 0,0 km/h (0 Bft) W-SW 247 -2,9 C 0,1 C 0,0 km/h (0 Bft)
20.12.2013 05:10 -0,2 C 81 % 1016,7 hPa 0,0 l/m 0,0 km/h (0 Bft) W-SW 247 -3,1 C 0,1 C 0,0 km/h (0 Bft)
20.12.2013 05:15 0,2 C 82 % 1016,7 hPa 0,0 l/m 0,6 km/h (0 Bft) W-SW 247 -2,5 C -0,2 C 0,0 km/h (0 Bft)
20.12.2013 05:20 1,0 C 81 % 1016,9 hPa 0,0 l/m 1,9 km/h (1 Bft) O-NO 67 -1,9 C -0,2 C 3,4 km/h (1 Bft)
20.12.2013 05:25 1,0 C 80 % 1016,9 hPa 0,0 l/m 2,6 km/h (1 Bft) O 90 -2,1 C -0,2 C 4,3 km/h (1 Bft)
20.12.2013 05:30 -0,2 C 79 % 1016,9 hPa 0,0 l/m 1,6 km/h (1 Bft) O-SO 112 -3,4 C -0,3 C 0,0 km/h (0 Bft)
20.12.2013 05:35 -0,7 C 79 % 1016,9 hPa 0,0 l/m 0,5 km/h (0 Bft) O-NO 67 -3,9 C -0,8 C 0,0 km/h (0 Bft)
20.12.2013 05:40 -1,1 C 79 % 1017,0 hPa 0,0 l/m 0,2 km/h (0 Bft) O 90 -4,3 C -1,1 C 0,0 km/h (0 Bft)
20.12.2013 05:45 -0,4 C 80 % 1017,0 hPa 0,0 l/m 0,6 km/h (0 Bft) O 90 -3,4 C -1,2 C 4,2 km/h (1 Bft)
20.12.2013 05:50 0,5 C 81 % 1017,0 hPa 0,0 l/m 2,7 km/h (1 Bft) O-SO 112 -2,4 C -1,1 C 3,1 km/h (1 Bft)
20.12.2013 05:55 -0,2 C 80 % 1017,0 hPa 0,0 l/m 2,6 km/h (1 Bft) SW 225 -3,2 C -0,8 C 0,0 km/h (0 Bft)
20.12.2013 06:00 -1,0 C 79 % 1017,4 hPa 0,0 l/m 0,6 km/h (0 Bft) O-SO 112 -4,2 C -0,9 C 0,0 km/h (0 Bft)
20.12.2013 06:05 -1,1 C 79 % 1017,4 hPa 0,0 l/m 0,3 km/h (0 Bft) O-SO 112 -4,3 C -0,9 C 0,0 km/h (0 Bft)
20.12.2013 06:10 -1,3 C 80 % 1017,4 hPa 0,0 l/m 0,0 km/h (0 Bft) S 180 -4,3 C -1,1 C 0,0 km/h (0 Bft)
20.12.2013 06:15 -1,0 C 81 % 1017,4 hPa 0,0 l/m 0,3 km/h (0 Bft) O 90 -3,8 C -1,4 C 1,9 km/h (1 Bft)
20.12.2013 06:20 -1,5 C 81 % 1017,5 hPa 0,0 l/m 0,3 km/h (0 Bft) NO 45 -4,3 C -1,7 C 2,4 km/h (1 Bft)
20.12.2013 06:25 -1,3 C 82 % 1017,5 hPa 0,0 l/m 0,3 km/h (0 Bft) O-SO 112 -4,0 C -1,8 C 0,0 km/h (0 Bft)
20.12.2013 06:30 -0,6 C 83 % 1017,5 hPa 0,0 l/m 0,3 km/h (0 Bft) O-NO 67 -3,1 C -1,6 C 0,0 km/h (0 Bft)
20.12.2013 06:35 -0,9 C 83 % 1017,5 hPa 0,0 l/m 0,5 km/h (0 Bft) NO 45 -3,4 C -1,4 C 2,6 km/h (1 Bft)
20.12.2013 06:38 -1,0 C 83 % 1018,0 hPa 0,0 l/m 1,9 km/h (1 Bft) O 90 -3,5 C -1,4 C 3,4 km/h (1 Bft)
20.12.2013 06:40 -1,0 C 83 % 1018,0 hPa 0,0 l/m 1,9 km/h (1 Bft) O 90 -3,5 C -1,4 C 3,4 km/h (1 Bft)
20.12.2013 06:45 -0,9 C 83 % 1018,0 hPa 0,0 l/m 1,9 km/h (1 Bft) O 90 -3,4 C -1,3 C 0,0 km/h (0 Bft)
20.12.2013 06:50 0,1 C 84 % 1018,0 hPa 0,0 l/m 1,8 km/h (1 Bft) O-SO 112 -2,3 C -0,9 C 1,9 km/h (1 Bft)
20.12.2013 06:55 -0,5 C 83 % 1018,0 hPa 0,0 l/m 1,8 km/h (1 Bft) SW 225 -3,0 C -0,7 C 0,0 km/h (0 Bft)
20.12.2013 07:00 -0,9 C 83 % 1018,6 hPa 0,0 l/m 0,5 km/h (0 Bft) SW 225 -3,4 C -0,9 C 0,0 km/h (0 Bft)
20.12.2013 07:05 -1,4 C 82 % 1018,6 hPa 0,0 l/m 0,0 km/h (0 Bft) SW 225 -4,1 C -1,2 C 0,0 km/h (0 Bft)
20.12.2013 07:10 -1,6 C 82 % 1018,6 hPa 0,0 l/m 0,0 km/h (0 Bft) S-SW 202 -4,3 C -1,6 C 0,0 km/h (0 Bft)
20.12.2013 07:15 -1,6 C 83 % 1018,6 hPa 0,0 l/m 0,0 km/h (0 Bft) S-SW 202 -4,1 C -1,8 C 0,0 km/h (0 Bft)
20.12.2013 07:20 -1,5 C 83 % 1018,5 hPa 0,0 l/m 0,3 km/h (0 Bft) O-SO 112 -4,0 C -1,9 C 0,0 km/h (0 Bft)
20.12.2013 07:25 -1,8 C 83 % 1018,5 hPa 0,0 l/m 0,3 km/h (0 Bft) O-SO 112 -4,3 C -1,9 C 0,0 km/h (0 Bft)
20.12.2013 07:30 -2,0 C 83 % 1018,5 hPa 0,0 l/m 0,0 km/h (0 Bft) SO 135 -4,5 C -2,0 C 0,0 km/h (0 Bft)
20.12.2013 07:35 -2,3 C 83 % 1018,5 hPa 0,0 l/m 0,0 km/h (0 Bft) O-SO 112 -4,8 C -2,3 C 0,0 km/h (0 Bft)
20.12.2013 07:40 -2,2 C 83 % 1018,8 hPa 0,0 l/m 0,2 km/h (0 Bft) O-SO 112 -4,7 C -2,4 C 0,0 km/h (0 Bft)
20.12.2013 07:45 -2,4 C 83 % 1018,8 hPa 0,0 l/m 0,2 km/h (0 Bft) O-SO 112 -4,9 C -2,3 C 0,0 km/h (0 Bft)
20.12.2013 07:50 -2,3 C 84 % 1018,8 hPa 0,0 l/m 0,0 km/h (0 Bft) O-SO 112 -4,6 C -2,6 C 0,0 km/h (0 Bft)
20.12.2013 07:55 -0,5 C 86 % 1018,8 hPa 0,0 l/m 1,1 km/h (1 Bft) O-SO 112 -2,5 C -2,3 C 1,8 km/h (1 Bft)
20.12.2013 08:00 -1,9 C 85 % 1019,3 hPa 0,0 l/m 1,3 km/h (1 Bft) S-SO 157 -4,1 C -2,2 C 0,0 km/h (0 Bft)
20.12.2013 08:05 -2,1 C 85 % 1019,3 hPa 0,0 l/m 0,5 km/h (0 Bft) SO 135 -4,3 C -2,4 C 0,0 km/h (0 Bft)
20.12.2013 08:10 -1,3 C 86 % 1019,3 hPa 0,0 l/m 0,6 km/h (0 Bft) O-NO 67 -3,3 C -2,3 C 5,5 km/h (1 Bft)
20.12.2013 08:15 0,4 C 88 % 1019,3 hPa 0,0 l/m 3,1 km/h (1 Bft) O-SO 112 -1,3 C -2,4 C 6,8 km/h (2 Bft)
20.12.2013 08:20 1,1 C 86 % 1019,6 hPa 0,0 l/m 6,9 km/h (2 Bft) SO 135 -1,0 C -3,3 C 9,8 km/h (2 Bft)
20.12.2013 08:25 1,3 C 85 % 1019,6 hPa 0,0 l/m 7,2 km/h (2 Bft) O-SO 112 -0,9 C -2,8 C 8,9 km/h (2 Bft)
20.12.2013 08:30 1,2 C 83 % 1019,6 hPa 0,0 l/m 6,4 km/h (2 Bft) O-SO 112 -1,4 C -0,9 C 5,8 km/h (2 Bft)
20.12.2013 08:35 1,4 C 82 % 1019,6 hPa 0,0 l/m 5,8 km/h (2 Bft) O-SO 112 -1,3 C -0,6 C 6,3 km/h (2 Bft)
20.12.2013 08:40 1,4 C 81 % 1020,1 hPa 0,0 l/m 5,3 km/h (1 Bft) O-SO 112 -1,5 C -0,3 C 7,1 km/h (2 Bft)
20.12.2013 08:45 1,5 C 81 % 1020,1 hPa 0,0 l/m 5,6 km/h (1 Bft) O 90 -1,4 C -0,3 C 7,2 km/h (2 Bft)
20.12.2013 08:50 1,6 C 81 % 1020,1 hPa 0,0 l/m 6,3 km/h (2 Bft) O 90 -1,3 C -0,3 C 5,1 km/h (1 Bft)
20.12.2013 08:55 1,7 C 81 % 1020,1 hPa 0,0 l/m 6,0 km/h (2 Bft) O-SO 112 -1,2 C -0,2 C 7,4 km/h (2 Bft)
20.12.2013 09:00 1,7 C 82 % 1020,6 hPa 0,0 l/m 5,1 km/h (1 Bft) NO 45 -1,0 C 0,3 C 5,3 km/h (1 Bft)
20.12.2013 09:05 1,7 C 81 % 1020,6 hPa 0,0 l/m 4,2 km/h (1 Bft) O-SO 112 -1,2 C 0,6 C 5,1 km/h (1 Bft)
20.12.2013 09:10 1,7 C 81 % 1020,6 hPa 0,0 l/m 4,3 km/h (1 Bft) O-SO 112 -1,2 C 0,4 C 5,0 km/h (1 Bft)
20.12.2013 09:15 1,7 C 81 % 1020,6 hPa 0,0 l/m 4,8 km/h (1 Bft) O-SO 112 -1,2 C 0,4 C 5,8 km/h (2 Bft)
20.12.2013 09:20 0,2 C 79 % 1021,2 hPa 0,0 l/m 2,3 km/h (1 Bft) S-SO 157 -3,0 C 1,2 C 0,0 km/h (0 Bft)
20.12.2013 09:25 0,1 C 79 % 1021,2 hPa 0,0 l/m 0,5 km/h (0 Bft) S-SO 157 -3,1 C 0,9 C 0,0 km/h (0 Bft)
20.12.2013 09:30 0,3 C 79 % 1021,2 hPa 0,0 l/m 0,0 km/h (0 Bft) S-SO 157 -2,9 C 0,7 C 0,0 km/h (0 Bft)
20.12.2013 09:35 0,4 C 79 % 1021,2 hPa 0,0 l/m 0,0 km/h (0 Bft) S-SO 157 -2,8 C 0,8 C 0,0 km/h (0 Bft)
20.12.2013 09:40 0,6 C 80 % 1021,6 hPa 0,0 l/m 0,0 km/h (0 Bft) O-SO 112 -2,4 C 1,0 C 0,0 km/h (0 Bft)
20.12.2013 09:45 0,7 C 80 % 1021,6 hPa 0,0 l/m 0,2 km/h (0 Bft) O-SO 112 -2,3 C 1,1 C 2,1 km/h (1 Bft)
20.12.2013 09:50 0,5 C 80 % 1021,6 hPa 0,0 l/m 0,2 km/h (0 Bft) S-SO 157 -2,5 C 1,2 C 0,0 km/h (0 Bft)
20.12.2013 09:55 0,4 C 79 % 1021,6 hPa 0,0 l/m 0,2 km/h (0 Bft) S-SO 157 -2,8 C 1,2 C 0,0 km/h (0 Bft)
20.12.2013 10:00 0,7 C 80 % 1022,2 hPa 0,0 l/m 0,0 km/h (0 Bft) O 90 -2,3 C 1,5 C 0,0 km/h (0 Bft)
20.12.2013 10:05 1,0 C 79 % 1022,2 hPa 0,0 l/m 0,0 km/h (0 Bft) SO 135 -2,2 C 1,8 C 0,0 km/h (0 Bft)
20.12.2013 10:10 2,1 C 80 % 1022,2 hPa 0,0 l/m 0,2 km/h (0 Bft) S-SO 157 -1,0 C 2,3 C 0,0 km/h (0 Bft)
20.12.2013 10:15 2,4 C 80 % 1022,2 hPa 0,0 l/m 0,3 km/h (0 Bft) O-SO 112 -0,7 C 2,8 C 0,0 km/h (0 Bft)
20.12.2013 10:20 2,8 C 79 % 1022,8 hPa 0,0 l/m 0,0 km/h (0 Bft) O 90 -0,5 C 3,4 C 0,0 km/h (0 Bft)
20.12.2013 10:25 2,9 C 79 % 1022,8 hPa 0,0 l/m 0,0 km/h (0 Bft) S-SO 157 -0,4 C 3,8 C 0,0 km/h (0 Bft)
20.12.2013 10:30 3,0 C 77 % 1022,8 hPa 0,0 l/m 0,0 km/h (0 Bft) S-SO 157 -0,6 C 4,2 C 0,0 km/h (0 Bft)
20.12.2013 10:35 3,3 C 77 % 1022,8 hPa 0,0 l/m 0,0 km/h (0 Bft) S-SO 157 -0,3 C 4,4 C 0,0 km/h (0 Bft)
20.12.2013 10:40 3,8 C 77 % 1023,5 hPa 0,0 l/m 0,5 km/h (0 Bft) S-SW 202 0,1 C 5,0 C 0,0 km/h (0 Bft)
20.12.2013 10:45 4,1 C 76 % 1023,5 hPa 0,0 l/m 0,5 km/h (0 Bft) S-SO 157 0,3 C 5,3 C 2,3 km/h (1 Bft)
20.12.2013 10:50 4,5 C 74 % 1023,5 hPa 0,0 l/m 3,4 km/h (1 Bft) S-SO 157 0,3 C 5,5 C 7,1 km/h (2 Bft)
20.12.2013 10:55 4,3 C 71 % 1023,5 hPa 0,0 l/m 6,1 km/h (2 Bft) S 180 -0,5 C 4,2 C 11,7 km/h (2 Bft)
20.12.2013 11:00 4,3 C 71 % 1023,9 hPa 0,0 l/m 6,8 km/h (2 Bft) S 180 -0,5 C 3,5 C 7,6 km/h (2 Bft)
20.12.2013 11:05 4,2 C 70 % 1023,9 hPa 0,0 l/m 6,3 km/h (2 Bft) S-SO 157 -0,8 C 3,9 C 7,4 km/h (2 Bft)
20.12.2013 11:10 4,2 C 70 % 1023,9 hPa 0,0 l/m 7,1 km/h (2 Bft) O-SO 112 -0,8 C 3,0 C 7,4 km/h (2 Bft)
20.12.2013 11:15 4,2 C 71 % 1023,9 hPa 0,0 l/m 7,2 km/h (2 Bft) S 180 -0,6 C 2,7 C 14,0 km/h (3 Bft)
20.12.2013 11:20 4,3 C 71 % 1023,9 hPa 0,0 l/m 6,9 km/h (2 Bft) NW 315 -0,5 C 3,1 C 9,3 km/h (2 Bft)
20.12.2013 11:25 4,3 C 71 % 1023,9 hPa 0,0 l/m 6,3 km/h (2 Bft) S 180 -0,5 C 3,7 C 6,6 km/h (2 Bft)
20.12.2013 11:30 4,4 C 72 % 1023,9 hPa 0,0 l/m 6,0 km/h (2 Bft) S-SO 157 -0,2 C 4,0 C 7,2 km/h (2 Bft)
20.12.2013 11:35 4,4 C 72 % 1023,9 hPa 0,0 l/m 6,4 km/h (2 Bft) SO 135 -0,2 C 3,9 C 7,2 km/h (2 Bft)
20.12.2013 11:38 4,6 C 73 % 1024,1 hPa 0,0 l/m 6,3 km/h (2 Bft) SO 135 0,2 C 4,1 C 7,4 km/h (2 Bft)
20.12.2013 11:40 4,6 C 73 % 1024,1 hPa 0,0 l/m 6,3 km/h (2 Bft) SO 135 0,2 C 4,1 C 7,4 km/h (2 Bft)
20.12.2013 11:45 4,6 C 73 % 1024,1 hPa 0,0 l/m 6,4 km/h (2 Bft) O-SO 112 0,2 C 4,0 C 8,7 km/h (2 Bft)
20.12.2013 11:50 4,5 C 73 % 1024,1 hPa 0,0 l/m 6,8 km/h (2 Bft) S 180 0,1 C 3,5 C 7,1 km/h (2 Bft)
20.12.2013 11:55 4,5 C 74 % 1024,1 hPa 0,0 l/m 7,1 km/h (2 Bft) S-SO 157 0,3 C 3,2 C 7,9 km/h (2 Bft)
20.12.2013 12:00 4,6 C 75 % 1024,5 hPa 0,0 l/m 7,6 km/h (2 Bft) S 180 0,6 C 2,7 C 8,4 km/h (2 Bft)
20.12.2013 12:05 4,7 C 75 % 1024,5 hPa 0,0 l/m 7,7 km/h (2 Bft) S 180 0,7 C 2,7 C 6,8 km/h (2 Bft)
20.12.2013 12:10 5,1 C 74 % 1024,5 hPa 0,0 l/m 6,9 km/h (2 Bft) S 180 0,9 C 3,9 C 10,9 km/h (2 Bft)
20.12.2013 12:15 5,1 C 74 % 1024,5 hPa 0,0 l/m 6,9 km/h (2 Bft) S 180 0,9 C 4,2 C 6,4 km/h (2 Bft)
20.12.2013 12:20 5,2 C 74 % 1024,8 hPa 0,0 l/m 6,6 km/h (2 Bft) S 180 1,0 C 4,6 C 7,2 km/h (2 Bft)
20.12.2013 12:25 5,1 C 74 % 1024,8 hPa 0,0 l/m 6,1 km/h (2 Bft) S-SW 202 0,9 C 4,9 C 6,9 km/h (2 Bft)
20.12.2013 12:30 4,9 C 74 % 1024,8 hPa 0,0 l/m 7,1 km/h (2 Bft) S 180 0,7 C 4,0 C 14,6 km/h (3 Bft)
20.12.2013 12:35 4,8 C 74 % 1024,8 hPa 0,0 l/m 7,7 km/h (2 Bft) S-SO 157 0,6 C 2,9 C 8,4 km/h (2 Bft)
20.12.2013 12:40 4,6 C 75 % 1025,1 hPa 0,0 l/m 7,1 km/h (2 Bft) S-SW 202 0,6 C 3,6 C 6,6 km/h (2 Bft)
20.12.2013 12:45 4,5 C 75 % 1025,1 hPa 0,0 l/m 6,6 km/h (2 Bft) S-SO 157 0,5 C 4,0 C 8,9 km/h (2 Bft)
20.12.2013 12:50 4,4 C 76 % 1025,1 hPa 0,0 l/m 6,8 km/h (2 Bft) S-SO 157 0,5 C 3,5 C 17,7 km/h (3 Bft)
20.12.2013 12:55 4,3 C 77 % 1025,1 hPa 0,0 l/m 7,6 km/h (2 Bft) S 180 0,6 C 2,6 C 17,7 km/h (3 Bft)
20.12.2013 13:00 4,3 C 77 % 1025,2 hPa 0,0 l/m 7,6 km/h (2 Bft) S 180 0,6 C 2,6 C 17,7 km/h (3 Bft)
20.12.2013 13:05 4,3 C 78 % 1025,2 hPa 0,0 l/m 7,6 km/h (2 Bft) S 180 0,8 C 2,6 C 17,7 km/h (3 Bft)
20.12.2013 13:10 4,5 C 78 % 1025,2 hPa 0,0 l/m 0,0 km/h (0 Bft) S 180 1,0 C 3,7 C 0,0 km/h (0 Bft)
20.12.2013 13:15 4,4 C 78 % 1025,2 hPa 0,0 l/m 0,0 km/h (0 Bft) S 180 0,9 C 3,7 C 0,0 km/h (0 Bft)
20.12.2013 13:20 4,5 C 79 % 1025,5 hPa 0,0 l/m 0,0 km/h (0 Bft) S 180 1,2 C 3,7 C 0,0 km/h (0 Bft)
20.12.2013 13:25 4,4 C 79 % 1025,5 hPa 0,0 l/m 0,0 km/h (0 Bft) S 180 1,1 C 3,7 C 0,0 km/h (0 Bft)
20.12.2013 13:30 4,3 C 79 % 1025,5 hPa 0,0 l/m 0,0 km/h (0 Bft) S 180 1,0 C 3,7 C 0,0 km/h (0 Bft)
20.12.2013 13:35 4,3 C 79 % 1025,5 hPa 0,0 l/m 0,0 km/h (0 Bft) S 180 1,0 C 3,7 C 0,0 km/h (0 Bft)
20.12.2013 13:40 4,3 C 80 % 1025,7 hPa 0,0 l/m 0,0 km/h (0 Bft) S 180 1,2 C 3,7 C 0,0 km/h (0 Bft)
20.12.2013 13:45 4,2 C 80 % 1025,7 hPa 0,0 l/m 0,0 km/h (0 Bft) S 180 1,1 C 3,7 C 0,0 km/h (0 Bft)
20.12.2013 13:50 4,1 C 80 % 1025,7 hPa 0,0 l/m 0,0 km/h (0 Bft) S 180 1,0 C 3,7 C 0,0 km/h (0 Bft)
20.12.2013 13:55 4,0 C 81 % 1025,7 hPa 0,0 l/m 0,0 km/h (0 Bft) S 180 1,0 C 3,7 C 0,0 km/h (0 Bft)
20.12.2013 14:00 4,0 C 81 % 1026,1 hPa 0,0 l/m 0,0 km/h (0 Bft) S 180 1,0 C 3,7 C 0,0 km/h (0 Bft)
20.12.2013 14:05 3,9 C 82 % 1026,1 hPa 0,0 l/m 0,0 km/h (0 Bft) S 180 1,1 C 3,7 C 0,0 km/h (0 Bft)
20.12.2013 14:10 3,8 C 82 % 1026,1 hPa 0,0 l/m 0,0 km/h (0 Bft) S 180 1,0 C 3,7 C 0,0 km/h (0 Bft)
20.12.2013 14:15 3,8 C 83 % 1026,1 hPa 0,0 l/m 0,0 km/h (0 Bft) S 180 1,2 C 3,7 C 0,0 km/h (0 Bft)
20.12.2013 14:20 3,6 C 83 % 1026,4 hPa 0,0 l/m 0,0 km/h (0 Bft) S 180 1,0 C 3,7 C 0,0 km/h (0 Bft)
20.12.2013 14:25 3,6 C 83 % 1026,4 hPa 0,0 l/m 0,0 km/h (0 Bft) S 180 1,0 C 3,7 C 0,0 km/h (0 Bft)
20.12.2013 14:30 3,4 C 84 % 1026,4 hPa 0,0 l/m 0,0 km/h (0 Bft) S 180 1,0 C 3,7 C 0,0 km/h (0 Bft)
20.12.2013 14:35 3,3 C 84 % 1026,4 hPa 0,0 l/m 0,0 km/h (0 Bft) S 180 0,9 C 3,7 C 0,0 km/h (0 Bft)
20.12.2013 14:40 3,2 C 84 % 1026,9 hPa 0,0 l/m 0,0 km/h (0 Bft) S 180 0,8 C 3,7 C 0,0 km/h (0 Bft)
20.12.2013 14:45 3,2 C 84 % 1026,9 hPa 0,0 l/m 0,0 km/h (0 Bft) S 180 0,8 C 3,7 C 0,0 km/h (0 Bft)
20.12.2013 14:50 3,0 C 85 % 1026,9 hPa 0,0 l/m 0,0 km/h (0 Bft) S 180 0,7 C 3,7 C 0,0 km/h (0 Bft)
20.12.2013 14:55 3,0 C 85 % 1026,9 hPa 0,0 l/m 0,0 km/h (0 Bft) S 180 0,7 C 3,7 C 0,0 km/h (0 Bft)
20.12.2013 15:00 2,9 C 86 % 1027,2 hPa 0,0 l/m 0,0 km/h (0 Bft) S 180 0,8 C 3,7 C 0,0 km/h (0 Bft)
20.12.2013 15:05 2,9 C 86 % 1027,2 hPa 0,0 l/m 0,0 km/h (0 Bft) S 180 0,8 C 3,7 C 0,0 km/h (0 Bft)
20.12.2013 15:10 2,8 C 87 % 1027,2 hPa 0,0 l/m 0,0 km/h (0 Bft) S 180 0,9 C 3,7 C 0,0 km/h (0 Bft)
20.12.2013 15:15 2,8 C 87 % 1027,2 hPa 0,0 l/m 0,0 km/h (0 Bft) S 180 0,9 C 3,7 C 0,0 km/h (0 Bft)
20.12.2013 15:20 2,7 C 87 % 1027,6 hPa 0,0 l/m 0,0 km/h (0 Bft) S 180 0,8 C 3,7 C 0,0 km/h (0 Bft)
20.12.2013 15:25 2,6 C 88 % 1027,6 hPa 0,0 l/m 0,0 km/h (0 Bft) S 180 0,8 C 3,7 C 0,0 km/h (0 Bft)
20.12.2013 15:30 2,6 C 88 % 1027,6 hPa 0,0 l/m 0,0 km/h (0 Bft) S 180 0,8 C 3,7 C 0,0 km/h (0 Bft)
20.12.2013 15:35 2,5 C 89 % 1027,6 hPa 0,0 l/m 0,0 km/h (0 Bft) S 180 0,9 C 3,7 C 0,0 km/h (0 Bft)
20.12.2013 15:40 2,5 C 89 % 1028,1 hPa 0,0 l/m 0,0 km/h (0 Bft) S 180 0,9 C 3,7 C 0,0 km/h (0 Bft)
20.12.2013 15:45 2,4 C 91 % 1028,1 hPa 0,0 l/m 0,0 km/h (0 Bft) S 180 1,1 C 3,7 C 0,0 km/h (0 Bft)
20.12.2013 15:50 2,3 C 91 % 1028,1 hPa 0,0 l/m 0,0 km/h (0 Bft) S 180 1,0 C 3,7 C 0,0 km/h (0 Bft)
20.12.2013 15:55 2,3 C 92 % 1028,1 hPa 0,0 l/m 0,0 km/h (0 Bft) S 180 1,1 C 3,7 C 0,0 km/h (0 Bft)
20.12.2013 16:00 2,3 C 92 % 1028,4 hPa 0,0 l/m 0,0 km/h (0 Bft) S 180 1,1 C 3,7 C 0,0 km/h (0 Bft)
20.12.2013 16:05 2,3 C 93 % 1028,4 hPa 0,0 l/m 0,0 km/h (0 Bft) S 180 1,3 C 3,7 C 0,0 km/h (0 Bft)
20.12.2013 16:10 2,1 C 93 % 1028,4 hPa 0,0 l/m 0,0 km/h (0 Bft) S 180 1,1 C 3,7 C 0,0 km/h (0 Bft)
20.12.2013 16:15 2,0 C 93 % 1028,4 hPa 0,0 l/m 0,0 km/h (0 Bft) S 180 1,0 C 3,7 C 0,0 km/h (0 Bft)
20.12.2013 16:20 1,9 C 93 % 1029,1 hPa 0,0 l/m 0,0 km/h (0 Bft) S 180 0,9 C 3,7 C 0,0 km/h (0 Bft)
20.12.2013 16:25 2,0 C 93 % 1029,1 hPa 0,0 l/m 0,0 km/h (0 Bft) S 180 1,0 C 3,7 C 0,0 km/h (0 Bft)
20.12.2013 16:30 1,9 C 94 % 1029,1 hPa 0,0 l/m 0,0 km/h (0 Bft) S 180 1,0 C 3,7 C 0,0 km/h (0 Bft)
20.12.2013 16:35 1,9 C 94 % 1029,1 hPa 0,0 l/m 0,0 km/h (0 Bft) S 180 1,0 C 3,7 C 0,0 km/h (0 Bft)
20.12.2013 16:38 1,9 C 94 % 1029,5 hPa 0,0 l/m 0,0 km/h (0 Bft) S 180 1,0 C 3,7 C 0,0 km/h (0 Bft)
20.12.2013 16:40 1,9 C 94 % 1029,5 hPa 0,0 l/m 0,0 km/h (0 Bft) S 180 1,0 C 3,7 C 0,0 km/h (0 Bft)
20.12.2013 16:45 1,9 C 94 % 1029,5 hPa 0,0 l/m 0,0 km/h (0 Bft) S 180 1,0 C 3,7 C 0,0 km/h (0 Bft)
20.12.2013 16:50 1,8 C 94 % 1029,5 hPa 0,0 l/m 0,0 km/h (0 Bft) S 180 0,9 C 3,7 C 0,0 km/h (0 Bft)
20.12.2013 16:55 1,8 C 94 % 1029,5 hPa 0,0 l/m 0,0 km/h (0 Bft) S 180 0,9 C 3,7 C 0,0 km/h (0 Bft)
20.12.2013 17:00 1,8 C 94 % 1029,9 hPa 0,0 l/m 0,0 km/h (0 Bft) S 180 0,9 C 3,7 C 0,0 km/h (0 Bft)
20.12.2013 17:05 1,8 C 94 % 1029,9 hPa 0,0 l/m 0,0 km/h (0 Bft) S 180 0,9 C 3,7 C 0,0 km/h (0 Bft)
20.12.2013 17:10 1,7 C 94 % 1029,9 hPa 0,0 l/m 0,0 km/h (0 Bft) S 180 0,8 C 3,7 C 0,0 km/h (0 Bft)
20.12.2013 17:15 1,7 C 95 % 1029,9 hPa 0,0 l/m 0,0 km/h (0 Bft) S 180 1,0 C 3,7 C 0,0 km/h (0 Bft)
20.12.2013 17:20 1,6 C 95 % 1030,1 hPa 0,0 l/m 0,0 km/h (0 Bft) S 180 0,9 C 3,7 C 0,0 km/h (0 Bft)
20.12.2013 17:25 1,5 C 95 % 1030,1 hPa 0,0 l/m 0,0 km/h (0 Bft) S 180 0,8 C 3,7 C 0,0 km/h (0 Bft)
20.12.2013 17:30 1,6 C 95 % 1030,1 hPa 0,0 l/m 0,0 km/h (0 Bft) S 180 0,9 C 3,7 C 0,0 km/h (0 Bft)
20.12.2013 17:35 1,6 C 95 % 1030,1 hPa 0,0 l/m 0,0 km/h (0 Bft) S 180 0,9 C 3,7 C 0,0 km/h (0 Bft)
20.12.2013 17:40 1,7 C 95 % 1030,2 hPa 0,0 l/m 0,0 km/h (0 Bft) S 180 1,0 C 3,7 C 0,0 km/h (0 Bft)
20.12.2013 17:45 1,7 C 95 % 1030,2 hPa 0,0 l/m 0,0 km/h (0 Bft) S 180 1,0 C 3,7 C 0,0 km/h (0 Bft)
20.12.2013 17:50 1,6 C 95 % 1030,2 hPa 0,0 l/m 0,0 km/h (0 Bft) S 180 0,9 C 3,7 C 0,0 km/h (0 Bft)
20.12.2013 17:55 1,6 C 95 % 1030,2 hPa 0,0 l/m 0,0 km/h (0 Bft) S 180 0,9 C 3,7 C 0,0 km/h (0 Bft)
20.12.2013 18:00 1,6 C 95 % 1030,4 hPa 0,0 l/m 0,0 km/h (0 Bft) S 180 0,9 C 3,7 C 0,0 km/h (0 Bft)
20.12.2013 18:05 1,5 C 95 % 1030,4 hPa 0,0 l/m 0,0 km/h (0 Bft) S 180 0,8 C 3,7 C 0,0 km/h (0 Bft)
20.12.2013 18:10 1,4 C 95 % 1030,4 hPa 0,0 l/m 0,0 km/h (0 Bft) S 180 0,7 C 3,7 C 0,0 km/h (0 Bft)
20.12.2013 18:15 1,6 C 95 % 1030,4 hPa 0,0 l/m 0,0 km/h (0 Bft) S 180 0,9 C 3,7 C 0,0 km/h (0 Bft)
20.12.2013 18:20 1,6 C 95 % 1030,7 hPa 0,0 l/m 0,0 km/h (0 Bft) S 180 0,9 C 3,7 C 0,0 km/h (0 Bft)
20.12.2013 18:25 1,6 C 95 % 1030,7 hPa 0,0 l/m 0,0 km/h (0 Bft) S 180 0,9 C 3,7 C 0,0 km/h (0 Bft)
20.12.2013 18:30 1,6 C 95 % 1030,7 hPa 0,0 l/m 0,0 km/h (0 Bft) S 180 0,9 C 3,7 C 0,0 km/h (0 Bft)
20.12.2013 18:35 1,6 C 95 % 1030,7 hPa 0,0 l/m 0,0 km/h (0 Bft) S 180 0,9 C 3,7 C 0,0 km/h (0 Bft)
20.12.2013 18:40 1,5 C 95 % 1030,8 hPa 0,0 l/m 0,0 km/h (0 Bft) S 180 0,8 C 3,7 C 0,0 km/h (0 Bft)
20.12.2013 18:45 1,5 C 95 % 1030,8 hPa 0,0 l/m 0,0 km/h (0 Bft) S 180 0,8 C 3,7 C 0,0 km/h (0 Bft)
20.12.2013 18:50 1,5 C 95 % 1030,8 hPa 0,0 l/m 0,0 km/h (0 Bft) S 180 0,8 C 3,7 C 0,0 km/h (0 Bft)
20.12.2013 18:55 1,5 C 95 % 1030,8 hPa 0,0 l/m 0,0 km/h (0 Bft) S 180 0,8 C 3,7 C 0,0 km/h (0 Bft)
20.12.2013 19:00 1,6 C 95 % 1031,1 hPa 0,0 l/m 0,0 km/h (0 Bft) S 180 0,9 C 3,7 C 0,0 km/h (0 Bft)
20.12.2013 19:05 1,7 C 94 % 1031,1 hPa 0,0 l/m 0,0 km/h (0 Bft) S 180 0,8 C 3,7 C 0,0 km/h (0 Bft)
20.12.2013 19:10 1,8 C 94 % 1031,1 hPa 0,0 l/m 0,0 km/h (0 Bft) S 180 0,9 C 3,7 C 0,0 km/h (0 Bft)
20.12.2013 19:15 1,5 C 94 % 1031,1 hPa 0,0 l/m 0,0 km/h (0 Bft) S 180 0,6 C 3,7 C 0,0 km/h (0 Bft)
20.12.2013 19:20 1,5 C 94 % 1030,9 hPa 0,0 l/m 0,0 km/h (0 Bft) S 180 0,6 C 3,7 C 0,0 km/h (0 Bft)
20.12.2013 19:25 1,3 C 94 % 1030,9 hPa 0,0 l/m 0,0 km/h (0 Bft) S 180 0,4 C 3,7 C 0,0 km/h (0 Bft)
20.12.2013 19:30 1,2 C 94 % 1030,9 hPa 0,0 l/m 0,0 km/h (0 Bft) S 180 0,3 C 3,7 C 0,0 km/h (0 Bft)
20.12.2013 19:35 1,3 C 94 % 1030,9 hPa 0,0 l/m 0,0 km/h (0 Bft) S 180 0,4 C 3,7 C 0,0 km/h (0 Bft)
20.12.2013 19:40 1,4 C 94 % 1031,1 hPa 0,0 l/m 0,0 km/h (0 Bft) S 180 0,5 C 3,7 C 0,0 km/h (0 Bft)
20.12.2013 19:45 1,5 C 94 % 1031,1 hPa 0,0 l/m 0,0 km/h (0 Bft) S 180 0,6 C 3,7 C 0,0 km/h (0 Bft)
20.12.2013 19:50 1,3 C 94 % 1031,1 hPa 0,0 l/m 0,0 km/h (0 Bft) S 180 0,4 C 3,7 C 0,0 km/h (0 Bft)
20.12.2013 19:55 1,2 C 94 % 1031,1 hPa 0,0 l/m 0,0 km/h (0 Bft) S 180 0,3 C 3,7 C 0,0 km/h (0 Bft)
20.12.2013 20:00 1,2 C 95 % 1031,4 hPa 0,0 l/m 0,0 km/h (0 Bft) S 180 0,5 C 3,7 C 0,0 km/h (0 Bft)
20.12.2013 20:05 1,2 C 95 % 1031,4 hPa 0,0 l/m 0,0 km/h (0 Bft) S 180 0,5 C 3,7 C 0,0 km/h (0 Bft)
20.12.2013 20:10 1,2 C 95 % 1031,4 hPa 0,0 l/m 0,0 km/h (0 Bft) S 180 0,5 C 3,7 C 0,0 km/h (0 Bft)
20.12.2013 20:15 1,2 C 95 % 1031,4 hPa 0,0 l/m 0,0 km/h (0 Bft) S 180 0,5 C 3,7 C 0,0 km/h (0 Bft)
20.12.2013 20:20 1,2 C 95 % 1031,4 hPa 0,0 l/m 0,0 km/h (0 Bft) S 180 0,5 C 3,7 C 0,0 km/h (0 Bft)
20.12.2013 20:25 1,1 C 95 % 1031,4 hPa 0,0 l/m 0,0 km/h (0 Bft) S 180 0,4 C 3,7 C 0,0 km/h (0 Bft)
20.12.2013 20:30 1,0 C 95 % 1031,4 hPa 0,0 l/m 0,0 km/h (0 Bft) S 180 0,3 C 3,7 C 0,0 km/h (0 Bft)
20.12.2013 20:35 0,9 C 95 % 1031,4 hPa 0,0 l/m 0,0 km/h (0 Bft) S 180 0,2 C 3,7 C 0,0 km/h (0 Bft)
20.12.2013 20:40 0,9 C 95 % 1031,6 hPa 0,0 l/m 0,0 km/h (0 Bft) S 180 0,2 C 3,7 C 0,0 km/h (0 Bft)
20.12.2013 20:45 0,9 C 95 % 1031,6 hPa 0,0 l/m 0,0 km/h (0 Bft) S 180 0,2 C 3,7 C 0,0 km/h (0 Bft)
20.12.2013 20:50 0,8 C 95 % 1031,6 hPa 0,0 l/m 0,0 km/h (0 Bft) S 180 0,1 C 3,7 C 0,0 km/h (0 Bft)
20.12.2013 20:55 0,9 C 95 % 1031,6 hPa 0,0 l/m 0,0 km/h (0 Bft) S 180 0,2 C 3,7 C 0,0 km/h (0 Bft)
20.12.2013 21:00 1,0 C 95 % 1031,8 hPa 0,0 l/m 0,0 km/h (0 Bft) S 180 0,3 C 3,7 C 0,0 km/h (0 Bft)
20.12.2013 21:05 0,9 C 96 % 1031,8 hPa 0,0 l/m 0,0 km/h (0 Bft) S 180 0,3 C 3,7 C 0,0 km/h (0 Bft)
20.12.2013 21:10 0,9 C 96 % 1031,8 hPa 0,0 l/m 0,0 km/h (0 Bft) S 180 0,3 C 3,7 C 0,0 km/h (0 Bft)
20.12.2013 21:15 0,9 C 96 % 1031,8 hPa 0,0 l/m 0,0 km/h (0 Bft) S 180 0,3 C 3,7 C 0,0 km/h (0 Bft)
20.12.2013 21:20 1,0 C 96 % 1031,6 hPa 0,0 l/m 0,0 km/h (0 Bft) S 180 0,4 C 3,7 C 0,0 km/h (0 Bft)
20.12.2013 21:25 0,8 C 96 % 1031,6 hPa 0,0 l/m 0,0 km/h (0 Bft) S 180 0,2 C 3,7 C 0,0 km/h (0 Bft)
20.12.2013 21:30 1,1 C 96 % 1031,6 hPa 0,0 l/m 0,0 km/h (0 Bft) S 180 0,5 C 3,7 C 0,0 km/h (0 Bft)
20.12.2013 21:35 1,0 C 96 % 1031,6 hPa 0,0 l/m 0,0 km/h (0 Bft) S 180 0,4 C 3,7 C 0,0 km/h (0 Bft)
20.12.2013 21:39 0,9 C 96 % 1031,8 hPa 0,0 l/m 0,0 km/h (0 Bft) S 180 0,3 C 3,7 C 0,0 km/h (0 Bft)
20.12.2013 21:40 0,9 C 96 % 1031,8 hPa 0,0 l/m 0,0 km/h (0 Bft) S 180 0,3 C 3,7 C 0,0 km/h (0 Bft)
20.12.2013 21:45 0,9 C 96 % 1031,8 hPa 0,0 l/m 0,0 km/h (0 Bft) S 180 0,3 C 3,7 C 0,0 km/h (0 Bft)
20.12.2013 21:50 0,7 C 96 % 1031,8 hPa 0,0 l/m 0,0 km/h (0 Bft) S 180 0,1 C 3,7 C 0,0 km/h (0 Bft)
20.12.2013 21:55 0,7 C 96 % 1031,8 hPa 0,0 l/m 0,0 km/h (0 Bft) S 180 0,1 C 3,7 C 0,0 km/h (0 Bft)
20.12.2013 22:00 0,8 C 96 % 1031,6 hPa 0,0 l/m 0,0 km/h (0 Bft) S 180 0,2 C 3,7 C 0,0 km/h (0 Bft)
20.12.2013 22:05 0,9 C 96 % 1031,6 hPa 0,0 l/m 0,0 km/h (0 Bft) S 180 0,3 C 3,7 C 0,0 km/h (0 Bft)
20.12.2013 22:10 0,9 C 96 % 1031,6 hPa 0,0 l/m 0,0 km/h (0 Bft) S 180 0,3 C 3,7 C 0,0 km/h (0 Bft)
20.12.2013 22:15 0,8 C 96 % 1031,6 hPa 0,0 l/m 0,0 km/h (0 Bft) S 180 0,2 C 3,7 C 0,0 km/h (0 Bft)
20.12.2013 22:20 0,7 C 96 % 1031,7 hPa 0,0 l/m 0,0 km/h (0 Bft) S 180 0,1 C 3,7 C 0,0 km/h (0 Bft)
20.12.2013 22:25 0,8 C 96 % 1031,7 hPa 0,0 l/m 0,0 km/h (0 Bft) S 180 0,2 C 3,7 C 0,0 km/h (0 Bft)
20.12.2013 22:30 0,6 C 96 % 1031,7 hPa 0,0 l/m 0,0 km/h (0 Bft) S 180 0,0 C 3,7 C 0,0 km/h (0 Bft)
20.12.2013 22:35 0,4 C 96 % 1031,7 hPa 0,0 l/m 0,0 km/h (0 Bft) S 180 -0,2 C 3,7 C 0,0 km/h (0 Bft)
20.12.2013 22:40 0,2 C 96 % 1031,6 hPa 0,0 l/m 0,0 km/h (0 Bft) S 180 -0,4 C 3,7 C 0,0 km/h (0 Bft)
20.12.2013 22:45 -0,1 C 96 % 1031,6 hPa 0,0 l/m 0,0 km/h (0 Bft) S 180 -0,7 C 3,7 C 0,0 km/h (0 Bft)
20.12.2013 22:50 0,1 C 96 % 1031,6 hPa 0,0 l/m 0,0 km/h (0 Bft) S 180 -0,5 C 3,7 C 0,0 km/h (0 Bft)
20.12.2013 22:55 0,1 C 96 % 1031,6 hPa 0,0 l/m 0,0 km/h (0 Bft) S 180 -0,5 C 3,7 C 0,0 km/h (0 Bft)
20.12.2013 23:00 0,0 C 96 % 1031,4 hPa 0,0 l/m 0,0 km/h (0 Bft) S 180 -0,6 C 3,7 C 0,0 km/h (0 Bft)
20.12.2013 23:05 -0,6 C 96 % 1031,4 hPa 0,0 l/m 0,0 km/h (0 Bft) S 180 -1,2 C 3,7 C 0,0 km/h (0 Bft)
20.12.2013 23:10 -0,5 C 96 % 1031,4 hPa 0,0 l/m 0,0 km/h (0 Bft) S 180 -1,1 C 3,7 C 0,0 km/h (0 Bft)
20.12.2013 23:15 -0,4 C 96 % 1031,4 hPa 0,0 l/m 0,0 km/h (0 Bft) S 180 -1,0 C 3,7 C 0,0 km/h (0 Bft)
20.12.2013 23:20 -0,8 C 96 % 1031,3 hPa 0,0 l/m 0,0 km/h (0 Bft) S 180 -1,4 C 3,7 C 0,0 km/h (0 Bft)
20.12.2013 23:25 -1,0 C 96 % 1031,3 hPa 0,0 l/m 0,0 km/h (0 Bft) S 180 -1,6 C 3,7 C 0,0 km/h (0 Bft)
20.12.2013 23:30 -1,5 C 96 % 1031,3 hPa 0,0 l/m 0,0 km/h (0 Bft) S 180 -2,1 C 3,7 C 0,0 km/h (0 Bft)
20.12.2013 23:35 -1,4 C 96 % 1031,3 hPa 0,0 l/m 0,0 km/h (0 Bft) S 180 -2,0 C 3,7 C 0,0 km/h (0 Bft)
20.12.2013 23:40 -1,1 C 96 % 1031,1 hPa 0,0 l/m 0,0 km/h (0 Bft) S 180 -1,7 C 3,7 C 0,0 km/h (0 Bft)
20.12.2013 23:45 -1,1 C 96 % 1031,1 hPa 0,0 l/m 0,0 km/h (0 Bft) S 180 -1,7 C 3,7 C 0,0 km/h (0 Bft)
20.12.2013 23:50 -1,3 C 96 % 1031,1 hPa 0,0 l/m 0,0 km/h (0 Bft) S 180 -1,9 C 3,7 C 0,0 km/h (0 Bft)
20.12.2013 23:55 -1,0 C 96 % 1031,1 hPa 0,0 l/m 0,0 km/h (0 Bft) S 180 -1,6 C 3,7 C 0,0 km/h (0 Bft)
_ Min-Zeit 07:45 00:25 01:35 - 23:55 - - 07:45 08:20 23:55
Minimum _ -2,4 C 59 % 1015,6 hPa - 0,0 km/h (0 Bft) - - -4,9 C -3,3 C 0,0 km/h (0 Bft)
_ Max-Zeit 12:20 23:55 21:55 23:55 12:35 - - 16:05 10:50 13:05
Maximum _ 5,2 C 96 % 1031,8 hPa 0,0 l/m 7,7 km/h
S-SO (2 Bft)
- - 1,3 C 5,5 C 17,7 km/h
S (3 Bft)
Durchschnitt _ 1,5 C 84 % 1023,8 hPa #0,0 l/m 1,4 km/h (1 Bft) O-SO - -1,0 C 2,2 C 1,8 km/h (1 Bft)